Fort Leonard Wood, MO

7:53 PM CDT on July 25, 2017 (GMT -0500)
Waynesville Regional At Forney Field

Weather History for KTBN - October, 2013

Change the Weather History Date:

Friday, October 18, 2013

  Actual Average Record
Temperature  
Mean Temperature 48 °F -  
Max Temperature 56 °F 66 °F 84 °F (2004)
Min Temperature 41 °F 48 °F 32 °F (1999)
Degree Days  
Heating Degree Days 16    
Moisture  
Dew Point 43 °F    
Average Humidity 85    
Maximum Humidity 100    
Minimum Humidity 59    
Precipitation  
Precipitation 0.03 in - - ()
Sea Level Pressure  
Sea Level Pressure 30.05 in    
Wind  
Wind Speed 6 mph (NW)    
Max Wind Speed 10 mph    
Max Gust Speed -    
Visibility 10 miles    
Events Rain    
Averages and records for this station are not official NWS values.
T = Trace of Precipitation, MM = Missing Value Source: NWS Daily Summary

Daily Weather History Graph

Daily Weather History Graph

Search for Another Location

Airport or City:

Trip Planner

Search our weather history database for the weather conditions in past years. The results will help you decide how hot, cold, wet, or windy it might be!

Date:

Astronomy

Oct. 18, 2013 Rise Set
Actual Time 7:20 AM CDT 6:26 PM CDT
Civil Twilight 6:53 AM CDT 6:53 PM CDT
Nautical Twilight 6:22 AM CDT 7:23 PM CDT
Astronomical Twilight 5:52 AM CDT 7:54 PM CDT
Moon 6:17 PM CDT (10/18) 6:56 AM CDT (10/18)
Length of Visible Light 11h 59m
Length of Day
11h 06m
Full, 100% of the Moon is Illuminated
Oct 18
Full
Oct 18
Full
Oct 26
Last Quarter
Nov 3
New
Nov 9
First Quarter

Hourly Weather History & Observations

Time (CDT) Temp. Windchill Dew Point Humidity Pressure Visibility Wind Dir Wind Speed Gust Speed Precip Events Conditions
12:58 AM 44.2 °F 42.7 °F 43.2 °F 96% 30.00 in 10.0 mi SSW 3.5 mph - N/A   Clear
1:58 AM 45.0 °F 43.5 °F 43.3 °F 94% 30.00 in 10.0 mi Variable 3.5 mph - N/A   Clear
2:58 AM 43.7 °F 42.1 °F 42.8 °F 97% 30.00 in 10.0 mi SW 3.5 mph - N/A   Clear
3:58 AM 45.0 °F - 43.3 °F 94% 30.02 in 10.0 mi West 2.3 mph - N/A   Clear
4:58 AM 44.6 °F 40.7 °F 43.5 °F 96% 30.03 in 10.0 mi WNW 6.9 mph - N/A   Clear
5:58 AM 43.0 °F - 42.6 °F 99% 30.04 in 10.0 mi WNW 2.3 mph - N/A   Clear
6:58 AM 41.9 °F 39.0 °F 41.7 °F 99% 30.07 in 10.0 mi WNW 4.6 mph - N/A   Clear
7:58 AM 41.5 °F 39.6 °F 41.5 °F 100% 30.08 in 10.0 mi WNW 3.5 mph - N/A   Clear
8:58 AM 45.0 °F 40.6 °F 43.5 °F 95% 30.10 in 10.0 mi NW 8.1 mph - N/A   Clear
9:58 AM 47.7 °F - 43.2 °F 84% 30.11 in 10.0 mi NW 10.4 mph - N/A   Clear
10:43 AM 50.0 °F - 42.8 °F 76% 30.09 in 10.0 mi NNW 10.4 mph - N/A   Mostly Cloudy
10:48 AM 50.0 °F - 42.8 °F 76% 30.09 in 10.0 mi NW 6.9 mph - N/A   Scattered Clouds
10:58 AM 50.5 °F - 43.3 °F 76% 30.10 in 10.0 mi NNW 9.2 mph - N/A   Mostly Cloudy
11:08 AM 50.0 °F - 42.8 °F 76% 30.08 in 10.0 mi NNW 9.2 mph - N/A   Scattered Clouds
11:58 AM 52.7 °F - 42.6 °F 69% 30.09 in 10.0 mi WNW 8.1 mph - N/A   Partly Cloudy
12:58 PM 55.8 °F - 43.3 °F 63% 30.06 in 10.0 mi NNW 6.9 mph - N/A   Clear
1:58 PM 55.9 °F - 41.7 °F 59% 30.04 in 10.0 mi North 6.9 mph - N/A   Partly Cloudy
2:58 PM 56.1 °F - 42.8 °F 61% 30.01 in 4.0 mi North 4.6 mph - N/A   Haze
3:58 PM 55.2 °F - 41.7 °F 60% 30.04 in 10.0 mi NW 8.1 mph - N/A   Overcast
4:58 PM 53.4 °F - 41.2 °F 63% 30.04 in 8.0 mi NNW 6.9 mph - N/A   Overcast
6:55 PM 48.7 °F - 39.9 °F 72% 30.02 in 10.0 mi NNW 10.4 mph - N/A   Light Drizzle
9:58 PM 43.2 °F 39.0 °F 43.0 °F 99% 30.06 in 10.0 mi NNW 6.9 mph - 0.03 in Rain Light Rain
10:08 PM 42.8 °F 37.5 °F 42.8 °F 100% 30.04 in 10.0 mi NNW 9.2 mph - N/A Rain Light Rain
10:18 PM 42.8 °F 38.6 °F 42.8 °F 100% 30.04 in 10.0 mi NW 6.9 mph - N/A Rain Light Rain
10:28 PM 42.8 °F 38.6 °F 42.8 °F 100% 30.04 in 10.0 mi NW 6.9 mph - N/A Rain Light Rain
10:33 PM 42.8 °F 39.3 °F 42.8 °F 100% 30.04 in 9.0 mi NW 5.8 mph - N/A Rain Light Rain
11:08 PM 41.0 °F 37.1 °F 41.0 °F 100% 30.04 in 10.0 mi WNW 5.8 mph - N/A Rain Light Rain